#timestamp,LO_Frequency,Hit,StdDev 
1550908815.4,286046997.1,P
1550908835.3,286046997.1,N
1550908855.1,286046999.2,N
1550908856.0,286046999.2,N
1550908875.8,286046996.8,N
1550908895.7,286046997.3,N
1550908915.5,286046997.2,N
1550908935.3,286046998.0,N
1550908955.2,286046995.7,Y
1550908975.0,286046999.2,P
1550908975.9,286046999.2,N
1550908995.8,286046999.2,N
1550909015.6,286046997.8,Y
1550909035.4,286046999.6,P
1550909055.3,286047001.2,P
1550909075.1,286047000.2,N
1550909095.9,286046999.7,N
1550909115.7,286046999.8,N
1550909135.5,286047002.8,Y
1550909155.4,286047001.9,P
1550909175.2,286047002.7,N
1550909195.1,286047001.6,N
1550909196.0,286047001.6,N
1550909215.8,286047001.8,N
1550909235.6,286047001.9,N
1550909255.5,286047002.1,N
1550909275.3,286047004.3,Y
1550909295.1,286046999.7,P
1550909315.9,286046999.9,N
1550909335.7,286047002.4,N
1550909355.6,286047000.3,N
1550909375.4,286047000.7,N
1550909395.2,286046999.9,N
1550909415.1,286047000.5,N
1550909416.0,286047000.5,N
1550909435.8,286046999.8,N
1550909455.7,286047002.7,Y
1550909475.5,286047002.8,P
1550909495.3,286047000.3,N
1550909515.2,286047002.5,N
1550909535.0,286047001.5,N
1550909535.9,286047001.5,N
1550909555.7,286047003.6,Y
1550909575.6,286047003.7,P
1550909595.4,286047001.5,N
1550909615.3,286047003.6,P
1550909635.1,286047001.3,N
1550909636.0,286047001.3,N
1550909655.8,286047002.9,N
1550909675.7,286047001.4,N
1550909695.5,286047003.2,Y
1550909715.4,286047002.6,P
1550909735.2,286046998.2,P
1550909755.0,286046999.5,N
1550909755.9,286046999.5,N
1550909775.8,286046998.8,N
1550909795.6,286046998.5,N
1550909815.4,286046999.0,N
1550909835.3,286046998.3,N
1550909855.1,286047001.2,N
1550909875.9,286046998.3,N
1550909895.7,286047000.2,N
1550909915.5,286047002.3,N
1550909935.4,286047000.6,N
1550909955.2,286047000.0,N
1550909975.0,286047002.2,N
1550909976.0,286047002.2,N
1550909995.8,286046999.7,N
1550910015.6,286047000.4,N
1550910035.5,286047000.6,N
1550910055.3,286047000.6,N
1550910075.2,286046998.8,N
1550910095.9,286046998.9,N
1550910115.7,286046998.3,N
1550910135.6,286046997.4,N
1550910155.4,286046995.0,Y
1550910175.2,286046995.4,P
1550910195.1,286046998.0,N
1550910196.0,286046998.0,N
1550910215.8,286046997.0,N
1550910235.7,286046997.3,N
1550910255.5,286046997.8,N
1550910275.3,286046997.5,N
1550910295.2,286046996.7,N
1550910315.0,286046995.0,Y
1550910315.9,286046995.0,P
1550910335.8,286046996.5,N
1550910355.6,286046996.8,P
1550910375.4,286046997.6,N
1550910395.3,286046995.3,Y
1550910415.1,286047001.1,P
1550910435.8,286047000.9,N
1550910455.7,286046998.5,N
1550910475.5,286047000.6,N
1550910495.4,286047002.1,N
1550910515.2,286047000.1,N
1550910535.0,286047000.2,N
1550910535.9,286047000.2,N
1550910555.8,286046998.3,N
1550910575.6,286046999.1,N
1550910595.4,286047001.0,N
1550910615.3,286046998.8,N
1550910635.1,286046998.3,N
1550910655.9,286046998.8,N
1550910675.7,286046997.4,N
1550910695.5,286046997.8,N
1550910715.4,286046999.6,N
1550910735.2,286046996.9,N
1550910755.0,286046997.0,N
1550910756.0,286046997.0,N
1550910775.8,286046998.2,N
1550910795.6,286047001.0,N
1550910815.5,286046998.4,N
1550910835.3,286047000.9,N
1550910855.1,286047000.3,N
1550910875.9,286047002.1,N
1550910895.7,286047003.6,N
1550910915.6,286047001.3,N
1550910935.4,286047001.5,N
1550910955.2,286046999.7,N
1550910975.1,286046998.2,N
1550910976.0,286046998.2,N
1550910995.8,286047000.0,N
1550911015.6,286047000.2,N
1550911035.5,286046999.7,N
1550911055.3,286047004.4,N
1550911075.2,286047001.8,N
1550911095.9,286047003.2,N
1550911115.7,286047002.2,N
1550911135.6,286046999.9,N
1550911155.4,286047000.1,N
1550911175.3,286046998.1,N
1550911195.1,286046998.2,N
1550911196.0,286046998.2,N
1550911215.8,286047000.7,N
1550911235.7,286047000.9,N
1550911255.5,286047002.8,N
1550911275.4,286047000.3,N
1550911295.2,286047000.0,N
1550911315.0,286047000.9,N
1550911315.9,286047000.9,N
1550911335.8,286046999.9,N
1550911355.6,286047002.5,N
1550911375.4,286046999.8,N
1550911395.3,286047000.1,N
1550911415.1,286047000.6,N
1550911435.9,286046999.7,N
1550911455.7,286047002.8,N
1550911475.5,286047002.1,N
1550911495.4,286047000.0,N
1550911515.2,286047002.0,N
1550911535.1,286046999.9,N
1550911536.0,286046999.9,N
1550911555.8,286047003.8,N
1550911575.6,286047003.5,N
1550911595.5,286047001.4,N
1550911615.3,286047002.8,N
1550911635.1,286047002.1,N
1550911655.9,286046999.8,N
1550911675.7,286047000.6,N
1550911695.6,286047000.5,N
1550911715.4,286047000.3,N
1550911735.2,286047001.0,N
1550911755.1,286047000.3,N
1550911756.0,286047000.3,N
1550911775.8,286047000.5,N
1550911795.6,286046999.4,N
1550911815.5,286046999.1,N
1550911835.3,286046998.4,N
1550911855.2,286047000.5,N
1550911875.0,286046998.2,N
1550911875.9,286046998.2,N
1550911895.7,286046999.4,N
1550911915.6,286046998.9,N
1550911935.4,286046998.9,N
1550911955.3,286046996.8,N
1550911975.1,286046997.5,N
1550911976.0,286046997.5,N
1550911995.8,286046998.0,N
1550912015.7,286046995.3,N
1550912035.5,286046996.5,N
1550912055.3,286046997.0,N
1550912075.2,286046997.7,N
1550912095.0,286046998.0,N
1550912095.9,286046998.0,N
1550912115.8,286046997.4,N
1550912135.6,286046997.3,N
1550912155.4,286046996.6,N
1550912175.3,286046997.2,N
1550912195.1,286046998.0,N
1550912215.9,286046995.2,Y
1550912235.7,286046999.5,P
1550912255.5,286046998.1,P
1550912275.4,286047000.8,N
1550912295.2,286047001.1,N
1550912315.0,286046998.7,N
1550912316.0,286046998.7,N
1550912335.8,286047001.0,N
1550912355.6,286047002.5,N
1550912375.5,286047002.7,N
1550912395.3,286047000.1,N
